IUS DEB, 43362

Orbit data source: Space-Track

IUS DEB, 43362 is space debris originally from a launch on Fri, 23 Jul 1999 UTC launched from the Air Force Eastern Test Range (AFETR). Debris objects in space refer to the collection of defunct objects orbiting the Earth. Examples of debris include non-operational satellites, rocket bodies, and fragments generated from explosions, collisions, or faulty payload assembly.

Loading next visibility...
Identifier
43362, 1999-040K
Orbit
Active
Country
Flag of USUS
Related business
Manufacturer
Boeing/Kent
Mission
Spacecraft
Bus & Motor
Unknown
Mass
Unknown
Launch date (UTC)
1999-07-23 (27 years ago)
Launch vehicle
Unknown
Launch site
Air Force Eastern Test Range (AFETR)
Object type
Payload
Rocket body
Debris
Shape & HBR
Unknown shape, 0.1 m
Radar Cross Section
Small (<0.1 m²)

Expand to show TLE details & history
Last TLE update: 3 weeks ago

TLE from 3 weeks ago
0 IUS DEB
1 43362U 99040K   26152.28878917 -.00001399  00000-0 -13866-1 0  9995
2 43362  28.0334 222.2492 3649286  70.9038 324.6538  7.08889148267085
Epoch: 2026-06-01T06:55Z
TLE epoch observation values (Epoch: 2026-06-01T06:55:51.384Z)
Latitude
0.00001°
Longitude
-131.49314°
Altitude
2,482.478 km
Speed
7.427 km/s
True Right ascension
14h 48m 59s
True Declination
0° 00' 00"
Sunlit
Object was in full shadow at epoch
Visualization orbit readout
Latitude
Unknown
Longitude
Unknown
Altitude
Unknown
Speed
Unknown
Apparent Right ascension
Unknown
Apparent Declination
Unknown
Sunlit
N/A
Visualization observer readout
Local Sidereal Time
21:37:20
Azimuth
Unknown
Elevation
Unknown
Doppler factor
Unknown
Orbital elements
Apogee altitude
9,250.248 km
Perigee altitude
893.409 km
Semi-major axis
11,449.965 km
Eccentricity
0.36493
Inclination
28.0334°
RAAN
222.2492°
Arg. of periapsis
70.9038°
True anomaly
289.14318°
Mean anomaly
324.6538°
Eccentric anomaly
308.22896°
Mean motion
1.77148 °/min
Orbital period
203.22 mins
BSTAR
-0.013866
Loading maneuver chart data...
Computing Atmospheric mass density...
Loading historical data...
Loading historical data...
Loading historical data...
Loading historical data...
Loading historical data...
Loading historical data...
Loading historical data...

Documentation

Showing up to 5 results
|